This demonstration page uses our WeatherBlox Daily Observations layout. Learn more.

Left ArrowRight Arrow

Hourly Observations for August 22, 2021

Temp ( °F °C ) Dew Point ( °F °C ) Humidity (%) Winds ( mph kmh ) Pressure ( in mb ) Visibility ( mi km ) Precip ( " mm )
12:15 am 00:15 Partly Cloudy 61 16.3 58 14.2 87 87 SE 8 13 30.01 1016 10 16 0.00 0.00
12:35 am 00:35 Mostly Cloudy 61 16.3 58 14.2 87 87 SE 8 13 30.00 1016 10 16 0.00 0.00
12:55 am 00:55 Partly Cloudy 61 16 57 14 88 88 SE 6 9 30.01 1016 10 16 0.00 0.00
1:15 am 01:15 Mostly Cloudy 61 16.3 58 14.5 89 89 SE 6 9 30.01 1016 10 16 0.00 0.00
1:35 am 01:35 Mostly Cloudy 60 15.8 57 14 89 89 SE 7 11 30.01 1016 10 16 0.00 0.00
1:55 am 01:55 Partly Cloudy 60 15.6 57 13.8 89 89 SE 8 13 30.00 1016 10 16 0.00 0.00
2:15 am 02:15 Clear 61 16 57 13.9 87 87 SE 8 13 29.99 1016 10 16 0.00 0.00
2:35 am 02:35 Clear 61 16 57 14 88 88 SE 7 11 29.99 1016 10 16 0.00 0.00
2:55 am 02:55 Clear 61 15.9 57 14 89 89 SE 9 15 29.97 1015 10 16 0.00 0.00
3:15 am 03:15 Partly Cloudy 61 16.1 57 14 87 87 SE 8 13 29.98 1015 10 16 0.00 0.00
3:35 am 03:35 Mostly Cloudy 61 16.2 57 14.1 87 87 SE 8 13 29.98 1015 10 16 0.00 0.00
3:55 am 03:55 Mostly Cloudy 62 16.4 57 14.1 86 86 SE 7 11 29.97 1015 10 16 0.00 0.00
4:15 am 04:15 Clear 61 16.3 58 14.2 87 87 SE 8 13 29.97 1015 10 16 0.00 0.00
4:35 am 04:35 Clear 61 16.2 58 14.3 89 89 SE 8 13 29.96 1015 10 16 0.00 0.00
4:55 am 04:55 Mostly Cloudy 61 16.3 58 14.5 89 89 SE 9 15 29.95 1014 10 16 0.00 0.00
5:15 am 05:15 Cloudy 62 16.7 58 14.5 87 87 SE 10 17 29.94 1014 10 16 0.00 0.00
5:35 am 05:35 Cloudy with Nearby Thunderstorms 63 17.1 58 14.6 85 85 SE 8 13 29.94 1014 10 16 0.00 0.00
5:55 am 05:55 Cloudy 63 17.4 58 14.6 84 84 SE 7 11 29.94 1014 10 16 0.00 0.00
6:15 am 06:15 Cloudy 64 17.7 58 14.6 82 82 SE 8 13 29.94 1014 10 16 0.00 0.00
6:35 am 06:35 Cloudy 64 17.6 58 14.6 83 83 SE 8 13 29.93 1013 10 16 0.00 0.00
6:55 am 06:55 Cloudy 64 17.7 58 14.7 83 83 S 6 9 29.94 1014 10 16 0.00 0.00
7:15 am 07:15 Cloudy 64 17.7 59 14.8 83 83 SSE 10 17 29.92 1013 10 16 0.00 0.00
7:35 am 07:35 Partly Cloudy 64 17.5 58 14.6 83 83 SSE 15 24 29.91 1013 10 16 0.00 0.00
7:55 am 07:55 Sunny 64 17.7 59 14.9 84 84 SSE 14 22 29.90 1012 10 16 0.00 0.00
8:15 am 08:15 Sunny 65 18.2 59 14.9 81 81 SSE 17 28 29.89 1012 10 16 0.00 0.00
8:35 am 08:35 Sunny 65 18.4 59 15 81 81 SSE 17 28 29.88 1012 10 16 0.00 0.00
8:55 am 08:55 Sunny 66 19 59 15.2 79 79 SSE 16 26 29.88 1012 10 16 0.00 0.00
9:15 am 09:15 Sunny 67 19.2 60 15.6 80 80 SSE 14 22 29.87 1012 10 16 0.00 0.00
9:35 am 09:35 Sunny 67 19.5 61 16.1 81 81 SSE 21 33 29.85 1011 10 16 0.00 0.00
9:55 am 09:55 Sunny 68 20 62 16.5 80 80 SSE 21 33 29.85 1011 10 16 0.00 0.00
10:15 am 10:15 Sunny 70 21.3 63 17.4 79 79 SSE 21 33 29.84 1010 10 16 0.00 0.00
10:35 am 10:35 Sunny 74 23.2 64 17.9 72 72 SSE 17 28 29.82 1010 10 16 0.00 0.00
10:55 am 10:55 Sunny 75 23.8 65 18.4 72 72 SSE 20 31 29.82 1010 10 16 0.00 0.00
11:15 am 11:15 Sunny 77 25 65 18.6 68 68 S 21 33 29.80 1009 10 16 0.00 0.00
11:35 am 11:35 Sunny 77 25.2 66 18.7 67 67 SSE 21 33 29.79 1009 10 16 0.00 0.00
11:55 am 11:55 Sunny 79 25.9 66 19 66 66 SSE 23 37 29.78 1008 10 16 0.00 0.00
12:15 pm 12:15 Sunny 80 26.7 67 19.2 64 64 S 18 30 29.77 1008 10 16 0.00 0.00
12:35 pm 12:35 Sunny 81 27.1 67 19.6 64 64 SSE 14 22 29.77 1008 10 16 0.00 0.00
12:55 pm 12:55 Partly Cloudy 82 27.9 67 19.5 60 60 S 9 15 29.77 1008 10 16 0.00 0.00
1:15 pm 13:15 Mostly Cloudy 84 28.7 68 20 59 59 S 10 17 29.76 1008 10 16 0.00 0.00
1:35 pm 13:35 Partly Cloudy 85 29.4 68 20 57 57 S 13 20 29.74 1007 10 16 0.00 0.00
1:55 pm 13:55 Partly Cloudy 86 29.8 68 20 56 56 S 14 22 29.73 1007 10 16 0.00 0.00
2:15 pm 14:15 Partly Cloudy 86 30.2 68 20 54 54 S 13 20 29.73 1007 10 16 0.00 0.00
2:35 pm 14:35 Partly Cloudy 88 31 68 19.9 52 52 S 14 22 29.71 1006 10 16 0.00 0.00
2:55 pm 14:55 Sunny 89 31.4 68 19.8 50 50 S 15 24 29.70 1006 10 16 0.00 0.00
3:15 pm 15:15 Sunny 89 31.6 68 20.1 50 50 S 16 26 29.70 1006 10 16 0.00 0.00
3:35 pm 15:35 Sunny 89 31.9 68 19.8 49 49 SSE 17 28 29.68 1005 10 16 0.00 0.00
3:55 pm 15:55 Sunny 90 32.2 68 20 48 48 SSE 12 19 29.66 1004 10 16 0.00 0.00
4:15 pm 16:15 Sunny 91 32.6 68 19.8 47 47 S 14 22 29.66 1004 10 16 0.00 0.00
4:35 pm 16:35 Sunny 91 32.7 68 20.2 48 48 S 14 22 29.65 1004 10 16 0.00 0.00
4:55 pm 16:55 Sunny 91 33 68 20 46 46 S 13 20 29.65 1004 10 16 0.00 0.00
5:15 pm 17:15 Sunny 91 33 69 20.4 47 47 SSE 8 13 29.64 1004 10 16 0.00 0.00
5:35 pm 17:35 Sunny 89 31.5 69 20.4 52 52 SSE 7 11 29.65 1004 10 16 0.00 0.00
5:55 pm 17:55 Sunny 85 29.7 70 21 60 60 SSE 5 7 29.65 1004 10 16 0.00 0.00
6:15 pm 18:15 Sunny 84 29.1 69 20.7 61 61 Calm 29.68 1005 10 16 0.00 0.00
6:35 pm 18:35 Partly Cloudy with Light Rain 82 27.6 70 21.3 69 69 S 8 13 29.67 1005 10 16 0.00 0.00
6:55 pm 18:55 Mostly Cloudy with Thunderstorms 81 27.1 70 20.9 69 69 S 10 17 29.69 1005 10 16 0.00 0.00
7:15 pm 19:15 Mostly Cloudy 78 25.6 70 20.9 75 75 SSW 26 43 29.67 1005 10 16 0.03 0.76
7:35 pm 19:35 Sunny with Nearby Thunderstorms 74 23.5 67 19.5 78 78 S 16 26 29.69 1005 10 16 0.03 0.76
7:55 pm 19:55 Partly Cloudy with Nearby Thunderstorms 75 24 66 19.1 74 74 S 23 37 29.74 1007 10 16 0.03 0.76
8:15 pm 20:15 Partly Cloudy with Nearby Thunderstorms 71 21.5 65 18.6 84 84 S 22 35 29.76 1008 10 16 0.00 0.00
8:35 pm 20:35 Clear 71 21.6 63 17.4 77 77 SSE 12 19 29.75 1008 10 16 0.00 0.00
8:55 pm 20:55 Clear 70 21 64 18 83 83 SSW 6 9 29.74 1007 10 16 0.00 0.00
9:15 pm 21:15 Clear with Light Rain 71 21.7 64 18 80 80 S 14 22 29.75 1008 10 16 0.00 0.00
9:35 pm 21:35 Partly Cloudy with Light Rain 71 21.8 63 17.4 76 76 S 17 28 29.74 1007 10 16 0.00 0.00
9:55 pm 21:55 Clear with Drizzle 70 21.1 64 17.6 81 81 SSW 18 30 29.77 1008 10 16 0.00 0.00
10:15 pm 22:15 Partly Cloudy with Light Rain 69 20.4 64 17.5 84 84 S 16 26 29.78 1009 10 16 0.00 0.00
10:35 pm 22:35 Partly Cloudy with Light Rain 69 20.6 64 18 85 85 S 12 19 29.80 1009 10 16 0.00 0.00
10:55 pm 22:55 Partly Cloudy with Light Rain 70 21 64 17.9 83 83 SW 10 17 29.78 1008 10 16 0.00 0.00
11:15 pm 23:15 Partly Cloudy 70 21 63 17.1 79 79 S 10 17 29.79 1009 10 16 0.00 0.00
11:35 pm 23:35 Mostly Cloudy 71 21.7 63 17 75 75 SW 33 54 29.77 1008 5 8 0.06 1.52
11:55 pm 23:55 Cloudy 68 20.1 62 16.6 80 80 SSW 20 31 29.80 1009 4 6 0.26 6.60

Powered by AerisWeather